"TOA5","AWS1","CR1000","7964","CR1000.Std.14","CPU:AWS1_114.CR1","64363","TBL110"
"TIMESTAMP","RECORD","Wind_spd_WVc(1)","Wind_spd_WVc(2)","Air_Temp_Avg","Humidity_Avg","SW_upper_Wm2_Avg","Rain_Tot","Press_Avg","Issui_Tot","Depth_cm","SR50A_Raw","Quality","Ground_Temp_Avg(1)","Ground_Temp_Avg(2)","SW_lower_Wm2_Avg","Albedo_Avg","SWC_per(1)","SWC_per(2)","Period(1)","Period(2)"
"TS","RN","","","","","","","","","","","","","","","","","","",""
"","","WVc","WVc","Avg","Avg","Avg","Tot","Avg","Tot","Smp","Smp","Smp","Avg","Avg","Avg","Avg","Smp","Smp","Smp","Smp"
"2018-07-09 00:00:00",348541,0.025,206.5,17.09,100,0,0,872.4615,0,19.05,2.9,279,18.97,18.06,0.2463204,0,51.05,58.5,33.56,35.33
"2018-07-09 00:10:00",348542,0.122,119.3,17.08,100,0,0,872.4594,0,-12.19,3.204,228,18.92,18.06,0.2311622,0,51.05,58.5,33.56,35.33
"2018-07-09 00:20:00",348543,0.105,137.4,16.96,100,0,0,872.4615,0,17.96,2.911,277,18.87,18.06,0.1061072,0,51.05,58.44,33.56,35.32
"2018-07-09 00:30:00",348544,0.11,74.53,16.87,100,0,0,872.4467,0,18.11,2.91,260,18.86,18.06,0.1098968,0,51.05,58.44,33.56,35.32
"2018-07-09 00:40:00",348545,0.172,11.63,16.85,100,0,0,872.4615,0,18.15,2.91,272,18.92,18.06,0.2728472,0,51.05,58.38,33.56,35.31
"2018-07-09 00:50:00",348546,0.151,76.89,16.73,100,0,0,872.3099,0,17.36,2.919,271,18.93,18.05,0.1591609,0,51.05,58.38,33.56,35.31
"2018-07-09 01:00:00",348547,0.363,31.79,16.69,100,0,0,872.2109,0,17.68,2.915,266,18.92,18.05,0.3334799,0,51.05,58.38,33.56,35.31
"2018-07-09 01:10:00",348548,0.337,22.88,16.84,100,0,0,872.2088,0,-20.75,3.288,206,18.88,18.04,0.4130603,0,50.99,58.38,33.54,35.31
"2018-07-09 01:20:00",348549,0.301,11.49,16.81,100,0,0,872.2088,0,17.73,2.915,306,18.83,18.03,0.2501099,0,50.99,58.38,33.54,35.31
"2018-07-09 01:30:00",348550,0.096,35.6,16.76,100,0,0,872.2088,0,18.69,2.905,274,18.79,18.05,0.2538995,0,50.99,58.38,33.54,35.31
"2018-07-09 01:40:00",348551,0.127,38.32,16.79,100,0,0,872.2088,0,15.11,2.94,327,18.83,18.05,0.2349517,0,50.99,58.38,33.54,35.31
"2018-07-09 01:50:00",348552,0.117,24.11,16.87,100,0.1296995,0,872.2067,0,-58.15,3.65,460,18.84,18.06,0.3031636,0.803,50.99,58.32,33.54,35.29
"2018-07-09 02:00:00",348553,0.138,52.88,16.83,100,0,0,872.2067,0,-17.42,3.255,207,18.83,18.07,0.2273727,0,50.99,58.32,33.54,35.29
"2018-07-09 02:10:00",348554,0.169,150.5,16.78,100,0,0,872.2088,0,17.32,2.919,260,18.75,18.08,0.08715952,0,50.99,58.32,33.54,35.29
"2018-07-09 02:20:00",348555,0.108,101.7,16.55,100,0,0,872.213,0,18.43,2.909,305,18.67,18.08,0.1023177,0,50.99,58.32,33.54,35.29
"2018-07-09 02:30:00",348556,0.185,14.2,16.59,100,0,0,872.2045,0,-18.66,3.269,214,18.7,18.11,0.2273727,0,50.94,58.26,33.53,35.28
"2018-07-09 02:40:00",348557,0.092,28.66,16.45,100,0,0,872.173,0,15.33,2.94,256,18.73,18.1,0.2122145,0,50.94,58.26,33.53,35.28
"2018-07-09 02:50:00",348558,0.214,8.79,16.36,100,0,0,872.0992,0,-22.66,3.309,207,18.73,18.11,0.299374,0,50.99,58.26,33.54,35.28
"2018-07-09 03:00:00",348559,0.138,41.64,16.36,100,0,0,872.135,0,14.61,2.947,238,18.75,18.1,0.2273727,0,50.99,58.26,33.54,35.28
"2018-07-09 03:10:00",348560,0.329,74.06,16.23,100,0,0,872.0656,0,18.31,2.912,281,18.69,18.09,0.125055,0,50.94,58.21,33.53,35.26
"2018-07-09 03:20:00",348561,0.101,53.72,16.16,100,0,0,872.2003,0,17.12,2.924,269,18.59,18.08,0.2122145,0,50.94,58.15,33.53,35.25
"2018-07-09 03:30:00",348562,0.044,80.2,15.97,100,0,0,872.2088,0,-15.35,3.24,200,18.63,18.09,0.1856877,0,50.94,58.15,33.53,35.25
"2018-07-09 03:40:00",348563,0.138,100.3,15.79,100,0,0,872.2088,0,-15.66,3.244,194,18.67,18.07,0.2008459,0,50.94,58.15,33.53,35.25
"2018-07-09 03:50:00",348564,0.12,78.49,15.73,100,0,0,872.2088,0,17.4,2.923,265,18.66,18.08,0.341059,0,50.94,58.09,33.53,35.24
"2018-07-09 04:00:00",348565,0.137,24.54,15.68,100,0,0,872.2509,0,15.49,2.942,243,18.59,18.08,0.3562172,0,50.94,58.09,33.53,35.24
"2018-07-09 04:10:00",348566,0.099,40.83,15.7,100,0,0,872.4257,0,16.67,2.931,241,18.58,18.08,0.4888512,0,50.94,58.09,33.53,35.24
"2018-07-09 04:20:00",348567,0.048,123.5,15.52,100,0,0,872.3436,0,-16.85,3.258,195,18.57,18.08,0.2387413,0,50.94,58.03,33.53,35.22
"2018-07-09 04:30:00",348568,0.232,183.6,15.2,100,0,0,872.4131,0,17.41,2.926,249,18.58,18.1,0.1174759,0,50.94,58.03,33.53,35.22
"2018-07-09 04:40:00",348569,0.124,278.4,15.24,100,0,0,872.4615,0,16.35,2.935,249,18.58,18.12,0.7730671,0,50.94,58.09,33.53,35.24
"2018-07-09 04:50:00",348570,0.125,254.5,15.24,100,1.057247,0,872.5184,0,16.72,2.934,240,18.55,18.11,0.8336998,1.082,50.94,58.09,33.53,35.24
"2018-07-09 05:00:00",348571,0.161,169.1,14.68,100,3.214984,0,872.7122,0,17.87,2.925,239,18.52,18.14,0.5077999,0.183,50.94,58.03,33.53,35.22
"2018-07-09 05:10:00",348572,0.323,196.4,14.32,100,6.787743,0,872.7142,0,20.89,2.896,238,18.51,18.15,0.8867723,0.127,50.88,58.03,33.52,35.22
"2018-07-09 05:20:00",348573,0.084,197.8,14.42,100,10.20345,0,872.7206,0,18.26,2.922,232,18.5,18.16,1.731894,0.171,50.88,58.03,33.52,35.22
"2018-07-09 05:30:00",348574,0.309,197.1,14.26,100,13.17526,0,872.7775,0,20.15,2.904,242,18.51,18.16,1.576563,0.119,50.88,58.03,33.52,35.22
"2018-07-09 05:40:00",348575,0.306,187.5,14.15,100,18.2931,0,872.8512,0,20.85,2.898,252,18.46,18.17,2.588479,0.14,50.88,57.97,33.52,35.21
"2018-07-09 05:50:00",348576,0.257,181.8,14.14,100,29.70071,0,872.7185,0,20.92,2.896,286,18.44,18.18,5.840377,0.193,50.88,57.97,33.52,35.21
"2018-07-09 06:00:00",348577,0.365,170.9,14.42,100,64.96404,0,872.7142,0,18.23,2.92,262,18.44,18.18,11.56715,0.207,50.88,57.97,33.52,35.21
"2018-07-09 06:10:00",348578,0.088,176.7,14.95,100,157.4695,0,872.7185,0,18.74,2.912,270,18.42,18.17,17.34676,0.133,50.88,57.97,33.52,35.21
"2018-07-09 06:20:00",348579,0.002,99,15.38,100,64.6571,0,872.7648,0,17.93,2.919,292,18.37,18.13,18.92345,0.345,50.88,57.91,33.52,35.2
"2018-07-09 06:30:00",348580,0.089,355.4,15.78,91.2,65.85938,0,872.9375,0,21.05,2.885,289,18.35,18.1,24.20652,0.402,50.88,57.91,33.52,35.2
"2018-07-09 06:40:00",348581,0.247,17.09,16.2,83.4,76.59868,0,873.0281,0,20.2,2.894,264,18.3,18.09,27.57475,0.418,50.83,57.91,33.5,35.2
"2018-07-09 06:50:00",348582,0.225,17.92,16.09,86.6,141.0394,0,873.1208,0,23.9,2.858,259,18.32,18.08,27.74786,0.345,50.83,57.91,33.5,35.2
"2018-07-09 07:00:00",348583,0.007,88.9,16.29,90.2,66.96484,0,873.1503,0,20.36,2.889,269,18.32,18.08,31.76428,0.538,50.83,57.91,33.5,35.2
"2018-07-09 07:10:00",348584,0.028,115.5,16.79,89.8,83.92765,0,873.403,0,22.42,2.869,250,18.28,18.12,32.04069,0.555,50.88,57.86,33.52,35.18
"2018-07-09 07:20:00",348585,0.163,21.34,16.84,85.1,48.22858,0,873.4725,0,18.33,2.907,233,18.23,18.13,31.22965,0.656,50.83,57.86,33.5,35.18
"2018-07-09 07:30:00",348586,0.512,1.402,17.35,78.82,67.73064,0,873.4725,0,-13.88,3.217,173,18.21,18.12,32.71514,0.501,50.83,57.86,33.5,35.18
"2018-07-09 07:40:00",348587,0.094,354.2,17.72,80.8,71.76311,0,873.502,0,-16.69,3.243,179,18.15,18.1,26.0948,0.361,50.88,57.86,33.52,35.18
"2018-07-09 07:50:00",348588,0.212,1.794,18.14,79.64,357.5107,0,873.6873,0,19.03,2.895,300,18.19,18.11,39.48326,0.26,50.83,57.8,33.5,35.17
"2018-07-09 08:00:00",348589,0.35,358.4,18.48,76.67,621.5749,0,873.7253,0,-18.71,3.259,199,18.21,18.13,55.94505,0.09,50.88,57.8,33.52,35.17
"2018-07-09 08:10:00",348590,0.186,25.91,18.74,76.23,660.9642,0,873.7253,0,-12.52,3.195,181,18.16,18.14,75.39677,0.114,50.88,57.8,33.52,35.17
"2018-07-09 08:20:00",348591,0.51,30.77,19.26,73.66,697.9089,0,873.662,0,28.88,2.794,283,18.14,18.07,89.38399,0.128,50.83,57.8,33.5,35.17
"2018-07-09 08:30:00",348592,0.235,36.12,19.77,73.12,736.4178,0,873.641,0,25.4,2.824,365,18.11,18.06,99.66123,0.135,50.77,57.8,33.49,35.17
"2018-07-09 08:40:00",348593,0.255,76.21,20.06,72.82,770.3323,0,873.6592,0,-12.43,3.187,186,18.1,18.06,106.6567,0.138,50.88,57.8,33.52,35.17
"2018-07-09 08:50:00",348594,0.414,46.58,20.34,71.3,799.8094,0,873.5193,0,26.35,2.813,290,18.11,18.06,111.6779,0.14,50.83,57.74,33.5,35.16
"2018-07-09 09:00:00",348595,0.185,111.8,20.96,70.14,833.1736,0,873.4857,0,15,2.919,238,18.1,18.06,115.0127,0.138,50.83,57.74,33.5,35.16
"2018-07-09 09:10:00",348596,0.272,51.47,21.08,70.73,864.3487,0,873.4269,0,25.9,2.814,274,18.07,18.02,118.9311,0.138,50.83,57.74,33.5,35.16
"2018-07-09 09:20:00",348597,0.43,43.65,20.97,71.04,856.8419,0,873.4965,0,-10.79,3.167,186,18.03,18.01,119.1319,0.139,50.83,57.74,33.5,35.16
"2018-07-09 09:30:00",348598,0.2,91,21.53,72.17,872.056,0,873.4306,0,-16.69,3.221,189,18.02,18,121.0229,0.138,50.83,57.74,33.5,35.16
"2018-07-09 09:40:00",348599,0.405,7.425,21.44,71.07,922.0217,0,873.4322,0,-10.6,3.164,189,18.02,17.98,129.1477,0.14,50.77,57.74,33.49,35.16
"2018-07-09 09:50:00",348600,0.457,2.529,21.46,71.09,951.3063,0,873.405,0,-18.99,3.246,209,18.02,17.95,133.1608,0.14,50.77,57.68,33.49,35.14
"2018-07-09 10:00:00",348601,0.18,164.8,22.12,71.12,1003.147,0,873.4103,0,318,0,0,18.02,17.94,143.9496,0.143,50.77,57.68,33.49,35.14
"2018-07-09 10:10:00",348602,0.293,331.6,22.68,67.41,966.9449,0,873.3238,0,16.45,2.899,233,17.99,17.97,136.128,0.14,50.77,57.68,33.49,35.14
"2018-07-09 10:20:00",348603,0.264,334.7,22.71,67.97,1025.919,0,873.1774,0,-15.52,3.204,182,17.98,17.93,147.6369,0.143,50.72,57.68,33.47,35.14
"2018-07-09 10:30:00",348604,0.495,28.1,22.87,66.16,1079.736,0,873.1811,0,-16.5,3.213,197,17.98,17.93,158.6341,0.147,50.72,57.68,33.47,35.14
"2018-07-09 10:40:00",348605,0.478,12.61,22.86,67.47,1067.403,0,873.194,0,21.58,2.848,246,18.02,17.9,174.3418,0.163,50.72,57.68,33.47,35.14
"2018-07-09 10:50:00",348606,0.36,315.7,21.73,71.28,378.632,0,873.1896,0,25.44,2.818,373,18.04,17.86,47.61184,0.106,50.72,57.68,33.47,35.14
"2018-07-09 11:00:00",348607,0.304,343.6,22.23,71.1,1053.8,0,873.1923,0,17.47,2.889,276,18.13,17.85,161.9386,0.148,50.66,57.62,33.46,35.13
"2018-07-09 11:10:00",348608,0.2,288.2,21.65,71.08,408.687,0,873.221,0,-18,3.235,189,18.14,17.86,53.21657,0.121,50.66,57.62,33.46,35.13
"2018-07-09 11:20:00",348609,0.276,286.9,21.6,72.01,507.1092,0,873.2076,0,16.7,2.903,262,18.22,17.89,72.42198,0.13,50.66,57.62,33.46,35.13
"2018-07-09 11:30:00",348610,0.497,304.1,21.4,72.05,782.1782,0,873.252,0,17.43,2.893,238,18.28,17.89,120.7084,0.148,50.66,57.62,33.46,35.13
"2018-07-09 11:40:00",348611,0.585,326.9,22.41,68.16,1032.695,0,873.2478,0,17.2,2.888,252,18.35,17.88,164.0569,0.155,50.61,57.56,33.45,35.12
"2018-07-09 11:50:00",348612,0.41,300.5,22.62,66.37,655.4893,0,873.217,0,16.62,2.9,242,18.38,17.87,94.73103,0.133,50.61,57.56,33.45,35.12
"2018-07-09 12:00:00",348613,0.222,282.4,21.86,69.46,415.1916,0,873.205,0,27.69,2.793,341,18.5,17.89,56.33916,0.127,50.61,57.56,33.45,35.12
"2018-07-09 12:10:00",348614,0.095,339.4,22.17,71.06,434.2928,0,873.2103,0,-13.86,3.19,196,18.56,17.89,62.7397,0.139,50.61,57.56,33.45,35.12
"2018-07-09 12:20:00",348615,0.171,177.7,22.42,71.42,565.0574,0,873.1799,0,17.67,2.886,219,18.63,17.89,83.99525,0.142,50.61,57.51,33.45,35.1
"2018-07-09 12:30:00",348616,0.306,39.03,22.97,68.65,832.3562,0,873.0511,0,-14.15,3.189,198,18.71,17.86,130.709,0.151,50.61,57.51,33.45,35.1
"2018-07-09 12:40:00",348617,0.331,346.7,23.45,66.87,599.5574,0,872.962,0,16.48,2.897,247,18.75,17.84,86.09466,0.132,50.55,57.51,33.43,35.1
"2018-07-09 12:50:00",348618,0.171,115.8,23.09,69.3,575.3508,0,872.9658,0,29.51,2.769,387,18.83,17.84,86.0795,0.14,50.55,57.51,33.43,35.1
"2018-07-09 13:00:00",348619,0.297,28.44,23.66,67.56,998.8077,0,872.9099,0,-21.61,3.252,198,18.88,17.85,163.2953,0.158,50.55,57.45,33.43,35.09
"2018-07-09 13:10:00",348620,0.533,335.7,24.68,63.71,1130.516,0,872.7289,0,-18.02,3.22,221,18.97,17.86,178.1048,0.157,50.5,57.45,33.42,35.09
"2018-07-09 13:20:00",348621,0.202,330.1,23.68,65.41,366.5582,0,872.7142,0,14.51,2.916,232,19.02,17.85,44.99326,0.107,50.5,57.45,33.42,35.09
"2018-07-09 13:30:00",348622,0.259,314.2,22.33,70.78,363.414,0,872.7125,0,23.02,2.835,281,19.02,17.84,48.33564,0.122,50.5,57.45,33.42,35.09
"2018-07-09 13:40:00",348623,0.332,318.4,22.45,68.93,653.0486,0,872.728,0,16.48,2.897,323,19.13,17.84,99.69913,0.153,50.5,57.39,33.42,35.07
"2018-07-09 13:50:00",348624,0.422,318.5,22.99,65.54,836.2432,0,872.7074,0,-16.23,3.208,198,19.22,17.86,132.1907,0.158,50.44,57.39,33.41,35.07
"2018-07-09 14:00:00",348625,0.405,15.78,23.71,61.6,741.484,0,872.7112,0,24.7,2.816,299,19.27,17.89,112.5722,0.15,50.39,57.39,33.39,35.07
"2018-07-09 14:10:00",348626,0.254,301.5,23.13,66.65,576.3687,0,872.6419,0,19.29,2.869,316,19.34,17.89,84.72664,0.143,50.39,57.39,33.39,35.07
"2018-07-09 14:20:00",348627,0.294,196.9,23.6,64.62,842.7243,0,872.5372,0,13.73,2.917,327,19.38,17.88,130.4096,0.152,50.39,57.33,33.39,35.06
"2018-07-09 14:30:00",348628,0.347,137.2,24.22,58.62,831.8256,0,872.4603,0,-16.57,3.208,205,19.46,17.92,124.5093,0.148,50.33,57.33,33.38,35.06
"2018-07-09 14:40:00",348629,0.376,346.2,24.05,62.57,929.0059,0,872.454,0,18.76,2.868,231,19.49,17.93,138.7883,0.149,50.33,57.33,33.38,35.06
"2018-07-09 14:50:00",348630,0.591,337.9,23.93,60.76,752.7246,0,872.4529,0,-20.49,3.248,194,19.59,17.87,103.5076,0.133,50.28,57.33,33.37,35.06
"2018-07-09 15:00:00",348631,0.296,45.8,23.38,63.16,278.8578,0,872.4536,0,-18.78,3.233,202,19.6,17.93,35.61793,0.127,50.28,57.33,33.37,35.06
"2018-07-09 15:10:00",348632,0.144,215.2,23.7,63.2,701.0374,0,872.416,0,23.64,2.82,265,19.69,17.93,76.68901,0.113,50.28,57.33,33.37,35.06
"2018-07-09 15:20:00",348633,0.314,293.9,23.17,64.9,264.8856,0,872.2136,0,15.12,2.911,303,19.75,17.93,28.38369,0.112,50.22,57.27,33.35,35.05
"2018-07-09 15:30:00",348634,0.013,288.5,22.77,66.28,332.4001,0,872.2114,0,18.3,2.877,256,19.82,17.93,38.39187,0.122,50.28,57.27,33.37,35.05
"2018-07-09 15:40:00",348635,0.216,208.8,23.16,65.12,249.1998,0,872.2795,0,-17.17,3.218,219,19.92,17.96,36.94427,0.146,50.28,57.27,33.37,35.05
"2018-07-09 15:50:00",348636,0.02,275.2,22.88,68.96,145.7508,0,872.4613,0,-14.32,3.193,183,19.92,17.99,16.15862,0.109,50.22,57.27,33.35,35.05
"2018-07-09 16:00:00",348637,0.215,150.4,22.36,69.83,110.052,0,872.4615,0,24.71,2.82,344,20.02,18.03,12.44865,0.112,50.17,57.22,33.34,35.03
"2018-07-09 16:10:00",348638,0.091,165.2,22.42,70.04,139.4191,0,872.4699,0,26.15,2.805,332,20.07,18.04,20.0808,0.143,50.17,57.22,33.34,35.03
"2018-07-09 16:20:00",348639,0.113,178.9,22.45,71.1,123.1162,0,872.4636,0,-15.01,3.202,188,20.11,18.03,17.23485,0.139,50.17,57.22,33.34,35.03
"2018-07-09 16:30:00",348640,0.02,126.4,22.37,72.2,114.0333,0,872.4615,0,26.75,2.8,387,20.17,18.04,15.51818,0.136,50.22,57.22,33.35,35.03
"2018-07-09 16:40:00",348641,0.273,190.3,22.32,72.34,163.6768,0,872.4615,0,-16.05,3.211,196,20.15,18.04,25.89396,0.158,50.17,57.16,33.34,35.02
"2018-07-09 16:50:00",348642,0.058,245,22.33,72.86,104.7932,0,872.4615,0,-17,3.222,185,20.24,18.1,13.98342,0.133,50.17,57.16,33.34,35.02
"2018-07-09 17:00:00",348643,0.365,154.7,21.68,75.76,101.8612,0,872.5079,0,24.34,2.829,259,20.27,18.1,14.8967,0.146,50.17,57.22,33.34,35.03
"2018-07-09 17:10:00",348644,0.621,149.8,20.4,84.6,43.79912,0,872.6111,0,23.5,2.843,237,20.28,18.11,6.555912,0.149,50.11,57.22,33.33,35.03
"2018-07-09 17:20:00",348645,0.565,155.7,19.81,91.1,45.43412,0,872.7142,0,23.22,2.847,239,20.28,18.13,6.790864,0.149,50.11,57.16,33.33,35.02
"2018-07-09 17:30:00",348646,0.983,150.5,19.6,89.7,54.03752,0,872.7775,0,20.76,2.872,238,20.29,18.12,8.177837,0.151,50.11,57.16,33.33,35.02
"2018-07-09 17:40:00",348647,1.113,149.6,19.25,93.5,50.82647,0,872.9523,0,-13.77,3.208,194,20.32,18.11,7.961833,0.157,50.11,57.22,33.33,35.03
"2018-07-09 17:50:00",348648,0.863,148.1,18.84,100,60.10195,0,873.0239,0,-15.63,3.227,222,20.37,18.19,9.019115,0.15,50.11,57.16,33.33,35.02
"2018-07-09 18:00:00",348649,0.392,124.7,18.77,100,67.84854,0,873.2092,0,20.08,2.882,250,20.41,18.26,10.23935,0.151,50.06,57.16,33.31,35.02
"2018-07-09 18:10:00",348650,0.39,137.4,18.74,100,58.76565,0,873.3251,0,21.84,2.865,266,20.41,18.23,9.121433,0.155,50.06,57.16,33.31,35.02
"2018-07-09 18:20:00",348651,0.611,146.2,18.75,100,94.92429,0,873.4283,0,-14.16,3.213,180,20.41,18.22,14.79059,0.156,50.06,57.16,33.31,35.02
"2018-07-09 18:30:00",348652,0.475,148.9,18.79,100,64.01651,0,873.4725,0,25.31,2.831,314,20.41,18.22,9.966502,0.156,50.11,57.16,33.33,35.02
"2018-07-09 18:40:00",348653,0.705,140.1,18.67,100,32.31875,0,873.6516,0,23.97,2.845,270,20.41,18.34,5.286415,0.165,50.06,57.16,33.31,35.02
"2018-07-09 18:50:00",348654,0.959,142.1,18.48,100,25.74731,0,873.6579,0,-11.59,3.19,170,20.41,18.36,4.558822,0.177,50.06,57.1,33.31,35.01
"2018-07-09 19:00:00",348655,1.029,150.4,18.42,100,16.82163,0,873.7253,0,-17.14,3.244,178,20.41,18.33,3.471223,0.208,50.06,57.1,33.31,35.01
"2018-07-09 19:10:00",348656,0.85,147.5,18.34,100,8.041368,0,873.7316,0,21.87,2.867,298,20.41,18.32,2.292675,0.327,50.06,57.1,33.31,35.01
"2018-07-09 19:20:00",348657,0.262,194.5,18.32,100,0.5463098,0,873.9338,0,19.93,2.885,363,20.44,18.35,1.023177,2.92,50.06,57.1,33.31,35.01
"2018-07-09 19:30:00",348658,0.395,126.4,18.29,100,0,0,873.978,0,22.33,2.863,250,20.44,18.48,0.7351716,0,50.06,57.1,33.31,35.01
"2018-07-09 19:40:00",348659,0.581,128.1,18.09,100,0,0,873.978,0,21.96,2.867,278,20.34,18.49,0.6821181,0,50.06,57.1,33.31,35.01
"2018-07-09 19:50:00",348660,0.09,96.8,18.1,100,0,0,874.1739,0,23.95,2.848,268,20.31,18.47,0.6821181,0,50.01,57.04,33.3,34.99
"2018-07-09 20:00:00",348661,0.376,118.4,18.06,100,0,0,874.2307,0,-15.26,3.228,184,20.32,18.41,0.6821181,0,50.06,57.04,33.31,34.99
"2018-07-09 20:10:00",348662,0.16,134.2,18.02,100,0,0,874.2413,0,22.32,2.864,236,20.32,18.41,0.6821181,0,50.06,57.04,33.31,34.99
"2018-07-09 20:20:00",348663,0.081,135.8,18.02,100,0,0,874.3108,0,21.99,2.867,243,20.32,18.46,0.7541193,0,50.01,57.04,33.3,34.99
"2018-07-09 20:30:00",348664,0.068,75.27,17.99,100,0,0,874.4814,0,20.4,2.883,231,20.33,18.54,0.890543,0,50.01,57.04,33.3,34.99
"2018-07-09 20:40:00",348665,0.529,141.7,17.86,100,0,0,874.4835,0,18.77,2.899,244,20.34,18.56,0.6821181,0,50.06,57.04,33.31,34.99
"2018-07-09 20:50:00",348666,0.571,135.2,17.8,100,0,0,874.5193,0,20.18,2.886,250,20.23,18.54,0.6821181,0,50.01,57.04,33.3,34.99
"2018-07-09 21:00:00",348667,0.395,120.3,17.7,100,0,0,874.6562,0,20.22,2.886,257,20.23,18.52,0.6821181,0,50.01,56.98,33.3,34.98
"2018-07-09 21:10:00",348668,0.065,120.4,17.67,100,0,0,874.6962,0,23.98,2.85,264,20.24,18.5,0.723803,0,50.01,57.04,33.3,34.99
"2018-07-09 21:20:00",348669,0.272,305.1,17.6,100,0,0,874.7341,0,21.31,2.875,237,20.27,18.52,0.9852816,0,50.01,56.98,33.3,34.98
"2018-07-09 21:30:00",348670,0.114,223.1,17.68,100,0,0,874.7321,0,21.71,2.872,242,20.31,18.57,0.8336998,0,50.01,56.98,33.3,34.98
"2018-07-09 21:40:00",348671,0.047,18.38,17.69,100,0,0,874.7321,0,21.34,2.875,232,20.26,18.6,0.7275925,0,50.01,56.98,33.3,34.98
"2018-07-09 21:50:00",348672,0.007,134,17.57,100,0,0,874.5994,0,23.41,2.856,241,20.16,18.65,0.5760108,0,50.01,56.98,33.3,34.98
"2018-07-09 22:00:00",348673,0.01,338.4,17.66,100,0,0,874.5088,0,22.8,2.86,219,20.15,18.67,0.9208593,0,49.95,56.98,33.28,34.98
"2018-07-09 22:10:00",348674,0.204,315.8,17.74,100,0,0,874.4877,0,23.36,2.855,224,20.21,18.64,0.9360175,0,50.01,56.98,33.3,34.98
"2018-07-09 22:20:00",348675,0.022,298.6,17.75,100,0,0,874.4835,0,22.68,2.862,233,20.17,18.59,0.6934866,0,49.95,56.98,33.28,34.98
"2018-07-09 22:30:00",348676,0,266.1,17.65,100,0,0,874.4835,0,22.93,2.86,229,20.06,18.58,0.6821181,0,49.95,56.98,33.28,34.98
"2018-07-09 22:40:00",348677,0.173,305.9,17.46,100,0,0,874.4835,0,22.73,2.863,229,20.07,18.59,0.6896971,0,50.01,56.93,33.3,34.97
"2018-07-09 22:50:00",348678,0.204,311.7,17.41,100,0,0,874.4835,0,22.77,2.862,230,20.11,18.67,0.6972762,0,49.95,56.93,33.28,34.97
"2018-07-09 23:00:00",348679,0,0,17.37,100,0,0,874.4835,0,22.57,2.865,223,20.11,18.72,0.7958043,0,50.01,56.93,33.3,34.97
"2018-07-09 23:10:00",348680,0,0,17.14,100,0,0,874.4835,0,21.92,2.873,249,19.99,18.74,0.7351716,0,50.01,56.93,33.3,34.97
"2018-07-09 23:20:00",348681,0.277,42.76,17.06,100,0,0,874.4835,0,22.66,2.865,236,19.99,18.75,0.8602266,0,49.95,56.93,33.28,34.97
"2018-07-09 23:30:00",348682,0.089,40.65,17.24,100,0,0,874.4835,0,22.3,2.868,238,20.02,18.75,0.9360175,0,49.95,56.93,33.28,34.97
"2018-07-09 23:40:00",348683,0.048,94.1,17.13,100,0,0,874.4835,0,21.6,2.877,250,19.98,18.75,0.6139061,0,49.95,56.93,33.28,34.97
"2018-07-09 23:50:00",348684,0.155,172.8,16.73,100,0,0,874.454,0,21.52,2.878,236,19.91,18.73,0.1402131,0,49.95,56.93,33.28,34.97
